| time (UTC) | temp F | wind direction | speed MPH | gust MPH | rain 1hr in | rain 24hr in | rain mn in | humidity % | barometer mb |
| 20260502223254 | 64 | 171 | 5.0 | 8.0 | 0.00 | 0.00 | 0.00 | 40 | 1012.8 |
| 20260502222751 | 64 | 164 | 4.0 | 6.0 | 0.00 | 0.00 | 0.00 | 39 | 1012.9 |
| 20260502222248 | 64 | 213 | 10.0 | 12.0 | 0.00 | 0.00 | 0.00 | 39 | 1012.8 |
| 20260502221743 | 64 | 218 | 7.0 | 8.0 | 0.00 | 0.00 | 0.00 | 39 | 1012.8 |
| 20260502221240 | 64 | 192 | 10.0 | 12.0 | 0.00 | 0.00 | 0.00 | 39 | 1012.7 |
| 20260502220737 | 64 | 286 | 10.0 | 12.0 | 0.00 | 0.00 | 0.00 | 39 | 1013.0 |
| 20260502220233 | 64 | 225 | 11.0 | 14.0 | 0.00 | 0.00 | 0.00 | 39 | 1013.0 |
| 20260502215730 | 64 | 219 | 4.0 | 8.0 | 0.00 | 0.00 | 0.00 | 39 | 1013.1 |
| 20260502215227 | 64 | 213 | 7.0 | 9.0 | 0.00 | 0.00 | 0.00 | 40 | 1013.2 |
| 20260502214725 | 64 | 217 | 5.0 | 6.0 | 0.00 | 0.00 | 0.00 | 40 | 1013.2 |
| 20260502214221 | 63 | 225 | 13.0 | 14.0 | 0.00 | 0.00 | 0.00 | 39 | 1013.3 |
| 20260502213719 | 63 | 174 | 7.0 | 8.0 | 0.00 | 0.00 | 0.00 | 40 | 1013.4 |
| 20260502213216 | 63 | 164 | 3.0 | 8.0 | 0.00 | 0.00 | 0.00 | 39 | 1013.5 |
| 20260502212714 | 63 | 223 | 7.0 | 8.0 | 0.00 | 0.00 | 0.00 | 39 | 1013.6 |
| 20260502212212 | 63 | 172 | 5.0 | 6.0 | 0.00 | 0.00 | 0.00 | 40 | 1013.7 |
| 20260502211708 | 63 | 217 | 10.0 | 11.0 | 0.00 | 0.00 | 0.00 | 38 | 1013.7 |
| 20260502211205 | 63 | 245 | 12.0 | 14.0 | 0.00 | 0.00 | 0.00 | 38 | 1013.7 |
| 20260502210702 | 63 | 204 | 10.0 | 12.0 | 0.00 | 0.00 | 0.00 | 39 | 1013.8 |
| 20260502210159 | 64 | 240 | 7.0 | 9.0 | 0.00 | 0.00 | 0.00 | 39 | 1014.1 |
| 20260502205656 | 63 | 220 | 9.0 | 12.0 | 0.00 | 0.00 | 0.00 | 39 | 1014.2 |
| 20260502205153 | 63 | 160 | 4.0 | 8.0 | 0.00 | 0.00 | 0.00 | 39 | 1014.3 |
| 20260502204650 | 63 | 127 | 7.0 | 9.0 | 0.00 | 0.00 | 0.00 | 39 | 1014.5 |
| 20260502204148 | 63 | 209 | 11.0 | 15.0 | 0.00 | 0.00 | 0.00 | 38 | 1014.4 |
| 20260502203644 | 63 | 247 | 11.0 | 12.0 | 0.00 | 0.00 | 0.00 | 38 | 1014.3 |
| 20260502203143 | 64 | 232 | 15.0 | 17.0 | 0.00 | 0.00 | 0.00 | 38 | 1014.4 |
| 20260502202637 | 64 | 228 | 4.0 | 5.0 | 0.00 | 0.00 | 0.00 | 37 | 1014.7 |
| 20260502202135 | 64 | 214 | 8.0 | 9.0 | 0.00 | 0.00 | 0.00 | 39 | 1014.9 |
| 20260502201632 | 64 | 237 | 14.0 | 19.0 | 0.00 | 0.00 | 0.00 | 36 | 1015.2 |
| 20260502201128 | 62 | 236 | 9.0 | 11.0 | 0.00 | 0.00 | 0.00 | 37 | 1015.1 |
| 20260502200624 | 62 | 273 | 16.0 | 20.0 | 0.00 | 0.00 | 0.00 | 38 | 1015.4 |
| 20260502200121 | 63 | 166 | 11.0 | 14.0 | 0.00 | 0.00 | 0.00 | 37 | 1015.2 |
| 20260502195620 | 63 | 175 | 5.0 | 6.0 | 0.00 | 0.00 | 0.00 | 38 | 1015.6 |
| 20260502195115 | 62 | 192 | 9.0 | 11.0 | 0.00 | 0.00 | 0.00 | 37 | 1015.7 |
| 20260502194612 | 62 | 259 | 10.0 | 12.0 | 0.00 | 0.00 | 0.00 | 37 | 1015.6 |
| 20260502194108 | 62 | 227 | 3.0 | 5.0 | 0.00 | 0.00 | 0.00 | 38 | 1015.9 |
| 20260502193605 | 62 | 247 | 12.0 | 15.0 | 0.00 | 0.00 | 0.00 | 37 | 1015.7 |
| 20260502193102 | 62 | 205 | 12.0 | 15.0 | 0.00 | 0.00 | 0.00 | 38 | 1016.0 |
| 20260502192558 | 61 | 222 | 9.0 | 11.0 | 0.00 | 0.00 | 0.00 | 38 | 1015.9 |
| 20260502192056 | 61 | 231 | 12.0 | 20.0 | 0.00 | 0.00 | 0.00 | 39 | 1016.1 |
| 20260502191552 | 61 | 230 | 10.0 | 12.0 | 0.00 | 0.00 | 0.00 | 39 | 1016.3 |
| 20260502191050 | 61 | 173 | 7.0 | 11.0 | 0.00 | 0.00 | 0.00 | 39 | 1016.3 |
| 20260502190547 | 60 | 250 | 11.0 | 11.0 | 0.00 | 0.00 | 0.00 | 40 | 1016.5 |
| 20260502190044 | 61 | 299 | 10.0 | 12.0 | 0.00 | 0.00 | 0.00 | 37 | 1016.7 |
| 20260502185539 | 62 | 229 | 9.0 | 12.0 | 0.00 | 0.00 | 0.00 | 39 | 1016.4 |
| 20260502185036 | 61 | 220 | 7.0 | 9.0 | 0.00 | 0.00 | 0.00 | 38 | 1016.6 |
| 20260502184532 | 61 | 256 | 8.0 | 11.0 | 0.00 | 0.00 | 0.00 | 39 | 1016.7 |
| 20260502184028 | 60 | 192 | 4.0 | 5.0 | 0.00 | 0.00 | 0.00 | 38 | 1016.8 |
| 20260502183524 | 60 | 217 | 9.0 | 12.0 | 0.00 | 0.00 | 0.00 | 39 | 1017.1 |
| 20260502183021 | 59 | 214 | 7.0 | 12.0 | 0.00 | 0.00 | 0.00 | 39 | 1017.0 |
| 20260502182515 | 61 | 254 | 9.0 | 11.0 | 0.00 | 0.00 | 0.00 | 40 | 1016.9 |
| 20260502182012 | 59 | 180 | 6.0 | 8.0 | 0.00 | 0.00 | 0.00 | 39 | 1016.9 |
| 20260502181510 | 60 | 193 | 7.0 | 8.0 | 0.00 | 0.00 | 0.00 | 38 | 1017.2 |
| 20260502181009 | 60 | 258 | 8.0 | 11.0 | 0.00 | 0.00 | 0.00 | 39 | 1017.1 |
| 20260502180505 | 59 | 221 | 17.0 | 19.0 | 0.00 | 0.00 | 0.00 | 38 | 1017.3 |
| 20260502170424 | 57 | 291 | 7.0 | 9.0 | 0.00 | 0.00 | 0.00 | 41 | 1018.4 |
| 20260502163907 | 55 | 276 | 6.0 | 8.0 | 0.00 | 0.00 | 0.00 | 40 | 1018.7 |
| 20260502163404 | 56 | 225 | 7.0 | 11.0 | 0.00 | 0.00 | 0.00 | 40 | 1018.8 |
| 20260502162902 | 54 | 231 | 8.0 | 11.0 | 0.00 | 0.00 | 0.00 | 41 | 1018.8 |
| 20260502162358 | 55 | 290 | 11.0 | 15.0 | 0.00 | 0.00 | 0.00 | 41 | 1019.1 |
| 20260502161855 | 55 | 142 | 4.0 | 6.0 | 0.00 | 0.00 | 0.00 | 41 | 1018.9 |
| 20260502161351 | 55 | 244 | 5.0 | 8.0 | 0.00 | 0.00 | 0.00 | 40 | 1019.1 |
| 20260502160849 | 55 | 264 | 7.0 | 9.0 | 0.00 | 0.00 | 0.00 | 40 | 1019.1 |
| 20260502160347 | 55 | 299 | 9.0 | 11.0 | 0.00 | 0.00 | 0.00 | 40 | 1019.3 |
| 20260502152322 | 53 | 211 | 4.0 | 6.0 | 0.00 | 0.00 | 0.00 | 44 | 1019.7 |
| 20260502151820 | 53 | 260 | 9.0 | 9.0 | 0.00 | 0.00 | 0.00 | 43 | 1019.7 |
| 20260502151316 | 53 | 280 | 6.0 | 8.0 | 0.00 | 0.00 | 0.00 | 44 | 1019.7 |
| 20260502150814 | 52 | 245 | 9.0 | 14.0 | 0.00 | 0.00 | 0.00 | 44 | 1019.8 |
| 20260502150310 | 52 | 215 | 4.0 | 5.0 | 0.00 | 0.00 | 0.00 | 46 | 1019.6 |
| 20260502130659 | 44 | 192 | 4.0 | 5.0 | 0.00 | 0.00 | 0.00 | 65 | 1020.4 |
| 20260502130157 | 43 | 196 | 5.0 | 5.0 | 0.00 | 0.00 | 0.00 | 67 | 1020.4 |
| 20260502123642 | 39 | 205 | 0.0 | 0.0 | 0.00 | 0.00 | 0.00 | 70 | 1020.4 |
| 20260502123139 | 38 | 146 | 1.0 | 2.0 | 0.00 | 0.00 | 0.00 | 72 | 1020.4 |
| 20260502122635 | 38 | 109 | 0.0 | 0.0 | 0.00 | 0.00 | 0.00 | 74 | 1020.4 |
| 20260502122132 | 36 | 121 | 0.0 | 0.0 | 0.00 | 0.00 | 0.00 | 75 | 1020.2 |
| 20260502121630 | 35 | 114 | 0.0 | 0.0 | 0.00 | 0.00 | 0.00 | 81 | 1020.6 |
| 20260502121127 | 34 | 102 | 0.0 | 0.0 | 0.00 | 0.00 | 0.00 | 87 | 1020.4 |
| 20260502120624 | 33 | 102 | 0.0 | 0.0 | 0.00 | 0.00 | 0.00 | 88 | 1020.6 |
| 20260502120121 | 33 | 101 | 0.0 | 0.0 | 0.00 | 0.00 | 0.00 | 89 | 1020.6 |
| 20260502115618 | 32 | 103 | 0.0 | 0.0 | 0.00 | 0.00 | 0.00 | 90 | 1020.8 |
| 20260502115114 | 32 | 102 | 0.0 | 0.0 | 0.00 | 0.00 | 0.00 | 90 | 1020.6 |
| 20260502114610 | 32 | 114 | 0.0 | 0.0 | 0.00 | 0.00 | 0.00 | 91 | 1020.6 |
| 20260502114108 | 31 | 104 | 0.0 | 0.0 | 0.00 | 0.00 | 0.00 | 92 | 1020.6 |
| 20260502113605 | 31 | 108 | 0.0 | 0.0 | 0.00 | 0.00 | 0.00 | 92 | 1020.5 |
| 20260502113104 | 30 | 113 | 0.0 | 0.0 | 0.00 | 0.00 | 0.00 | 93 | 1020.7 |
| 20260502112601 | 30 | 108 | 0.0 | 0.0 | 0.00 | 0.00 | 0.00 | 93 | 1020.7 |
| 20260502112058 | 30 | 105 | 0.0 | 0.0 | 0.00 | 0.00 | 0.00 | 92 | 1020.7 |
| 20260502111556 | 30 | 108 | 0.0 | 0.0 | 0.00 | 0.00 | 0.00 | 92 | 1020.6 |
| 20260502111053 | 29 | 105 | 0.0 | 0.0 | 0.00 | 0.00 | 0.00 | 91 | 1020.4 |
| 20260502110550 | 29 | 102 | 0.0 | 0.0 | 0.00 | 0.00 | 0.00 | 91 | 1020.5 |
| 20260502110048 | 30 | 102 | 0.0 | 0.0 | 0.00 | 0.00 | 0.00 | 90 | 1020.7 |
| 20260502105545 | 30 | 102 | 0.0 | 0.0 | 0.00 | 0.00 | 0.00 | 89 | 1020.5 |
| 20260502105043 | 30 | 101 | 0.0 | 0.0 | 0.00 | 0.00 | 0.00 | 89 | 1020.4 |
| 20260502104539 | 31 | 108 | 0.0 | 0.0 | 0.00 | 0.00 | 0.00 | 88 | 1020.5 |
| 20260502104037 | 31 | 106 | 0.0 | 0.0 | 0.00 | 0.00 | 0.00 | 86 | 1020.5 |
| 20260502103535 | 32 | 116 | 0.0 | 0.0 | 0.00 | 0.00 | 0.00 | 86 | 1020.6 |
| 20260502103032 | 32 | 115 | 0.0 | 0.0 | 0.00 | 0.00 | 0.00 | 85 | 1020.4 |
| 20260502102528 | 32 | 128 | 0.0 | 0.0 | 0.00 | 0.00 | 0.00 | 85 | 1020.4 |
| 20260502102026 | 32 | 128 | 0.0 | 0.0 | 0.00 | 0.00 | 0.00 | 85 | 1020.5 |
| 20260502101523 | 32 | 128 | 0.0 | 0.0 | 0.00 | 0.00 | 0.00 | 85 | 1020.6 |
| 20260502101022 | 32 | 131 | 0.0 | 0.0 | 0.00 | 0.00 | 0.00 | 85 | 1020.5 |
| 20260502100520 | 32 | 118 | 0.0 | 0.0 | 0.00 | 0.00 | 0.00 | 85 | 1020.5 |
| 20260502091454 | 33 | 139 | 0.0 | 0.0 | 0.00 | 0.00 | 0.00 | 87 | 1020.2 |
| 20260502090952 | 33 | 127 | 0.0 | 0.0 | 0.00 | 0.00 | 0.00 | 87 | 1020.3 |
| 20260502090448 | 33 | 140 | 0.0 | 0.0 | 0.00 | 0.00 | 0.00 | 86 | 1020.3 |
| 20260502071343 | 36 | 143 | 0.0 | 0.0 | 0.00 | 0.00 | 0.00 | 81 | 1020.5 |
| 20260502070841 | 36 | 152 | 0.0 | 0.0 | 0.00 | 0.00 | 0.00 | 80 | 1020.4 |
| 20260502070339 | 37 | 155 | 1.0 | 2.0 | 0.00 | 0.00 | 0.00 | 77 | 1020.6 |
| 20260502065837 | 36 | 86 | 1.0 | 2.0 | 0.00 | 0.00 | 0.00 | 79 | 1020.6 |
| 20260502065335 | 36 | 109 | 0.0 | 2.0 | 0.00 | 0.00 | 0.00 | 78 | 1020.5 |
| 20260502064833 | 35 | 226 | 1.0 | 3.0 | 0.00 | 0.00 | 0.00 | 82 | 1020.9 |
| 20260502064331 | 33 | 160 | 2.0 | 3.0 | 0.00 | 0.00 | 0.00 | 87 | 1020.7 |
| 20260502063827 | 33 | 114 | 0.0 | 0.0 | 0.00 | 0.00 | 0.00 | 88 | 1020.8 |
| 20260502063325 | 33 | 115 | 0.0 | 0.0 | 0.00 | 0.00 | 0.00 | 88 | 1020.8 |
| 20260502062822 | 33 | 112 | 0.0 | 0.0 | 0.00 | 0.00 | 0.00 | 88 | 1020.6 |
| 20260502062320 | 33 | 105 | 0.0 | 0.0 | 0.00 | 0.00 | 0.00 | 88 | 1020.7 |
| 20260502061819 | 32 | 107 | 0.0 | 0.0 | 0.00 | 0.00 | 0.00 | 88 | 1020.7 |
| 20260502061316 | 33 | 107 | 0.0 | 0.0 | 0.00 | 0.00 | 0.00 | 88 | 1020.4 |
| 20260502060811 | 33 | 109 | 0.0 | 0.0 | 0.00 | 0.00 | 0.00 | 88 | 1020.6 |
| 20260502060307 | 33 | 103 | 0.0 | 0.0 | 0.00 | 0.00 | 0.00 | 87 | 1020.6 |
| 20260502055805 | 33 | 104 | 0.0 | 0.0 | 0.00 | 0.00 | 0.00 | 87 | 1020.5 |
| 20260502055305 | 33 | 111 | 0.0 | 0.0 | 0.00 | 0.00 | 0.00 | 87 | 1020.6 |
| 20260502054801 | 34 | 107 | 0.0 | 0.0 | 0.00 | 0.00 | 0.00 | 87 | 1020.8 |
| 20260502054259 | 33 | 106 | 0.0 | 0.0 | 0.00 | 0.00 | 0.00 | 88 | 1020.6 |
| 20260502053756 | 32 | 106 | 0.0 | 0.0 | 0.00 | 0.00 | 0.00 | 87 | 1020.8 |
| 20260502053253 | 32 | 100 | 0.0 | 0.0 | 0.00 | 0.00 | 0.00 | 86 | 1020.7 |
| 20260502052751 | 33 | 99 | 0.0 | 0.0 | 0.00 | 0.00 | 0.00 | 85 | 1020.7 |
| 20260502052249 | 33 | 99 | 0.0 | 0.0 | 0.00 | 0.00 | 0.00 | 85 | 1020.7 |
| 20260502051746 | 33 | 99 | 0.0 | 0.0 | 0.00 | 0.00 | 0.00 | 84 | 1020.5 |
| 20260502051245 | 34 | 103 | 0.0 | 0.0 | 0.00 | 0.00 | 0.00 | 84 | 1020.5 |
| 20260502050741 | 34 | 104 | 0.0 | 0.0 | 0.00 | 0.00 | 0.00 | 82 | 1020.5 |
| 20260502050237 | 35 | 98 | 0.0 | 0.0 | 0.00 | 0.00 | 0.00 | 81 | 1020.5 |
| 20260502045734 | 35 | 103 | 0.0 | 0.0 | 0.00 | 0.00 | 0.00 | 79 | 1020.4 |
| 20260502045231 | 36 | 103 | 0.0 | 0.0 | 0.00 | 0.00 | 0.00 | 78 | 1020.5 |
| 20260502044728 | 36 | 103 | 0.0 | 0.0 | 0.00 | 0.00 | 0.00 | 77 | 1020.4 |
| 20260502044224 | 37 | 108 | 0.0 | 0.0 | 0.00 | 0.00 | 0.00 | 75 | 1020.5 |
| 20260502043722 | 37 | 111 | 0.0 | 0.0 | 0.00 | 0.00 | 0.00 | 74 | 1020.6 |
| 20260502043219 | 37 | 109 | 0.0 | 0.0 | 0.00 | 0.00 | 0.00 | 73 | 1020.5 |
| 20260502042718 | 37 | 111 | 0.0 | 0.0 | 0.00 | 0.00 | 0.00 | 73 | 1020.4 |
| 20260502042216 | 38 | 103 | 0.0 | 0.0 | 0.00 | 0.00 | 0.00 | 72 | 1020.6 |
| 20260502041713 | 38 | 122 | 0.0 | 0.0 | 0.00 | 0.00 | 0.00 | 71 | 1020.7 |
| 20260502041211 | 38 | 110 | 0.0 | 0.0 | 0.00 | 0.00 | 0.00 | 69 | 1020.5 |
| 20260502040708 | 38 | 125 | 0.0 | 0.0 | 0.00 | 0.00 | 0.00 | 69 | 1020.6 |
| 20260502040204 | 38 | 108 | 0.0 | 0.0 | 0.00 | 0.00 | 0.00 | 69 | 1020.6 |
| 20260502035700 | 39 | 109 | 0.0 | 0.0 | 0.00 | 0.00 | 0.00 | 69 | 1020.5 |
| 20260502035157 | 39 | 100 | 0.0 | 0.0 | 0.00 | 0.00 | 0.00 | 68 | 1020.4 |
| 20260502034655 | 39 | 115 | 0.0 | 0.0 | 0.00 | 0.00 | 0.00 | 68 | 1020.6 |
| 20260502034153 | 39 | 104 | 0.0 | 0.0 | 0.00 | 0.00 | 0.00 | 66 | 1020.3 |
| 20260502033651 | 39 | 111 | 0.0 | 0.0 | 0.00 | 0.00 | 0.00 | 67 | 1020.6 |
| 20260502033149 | 40 | 111 | 0.0 | 0.0 | 0.00 | 0.00 | 0.00 | 67 | 1020.6 |
| 20260502032645 | 40 | 122 | 0.0 | 0.0 | 0.00 | 0.00 | 0.00 | 65 | 1020.3 |
| 20260502032141 | 40 | 133 | 0.0 | 0.0 | 0.00 | 0.00 | 0.00 | 64 | 1020.5 |
| 20260502031639 | 40 | 121 | 0.0 | 0.0 | 0.00 | 0.00 | 0.00 | 64 | 1020.5 |
| 20260502031136 | 41 | 107 | 0.0 | 0.0 | 0.00 | 0.00 | 0.00 | 62 | 1020.6 |
| 20260502030635 | 42 | 114 | 0.0 | 0.0 | 0.00 | 0.00 | 0.00 | 61 | 1020.8 |
| 20260502030133 | 42 | 122 | 0.0 | 0.0 | 0.00 | 0.00 | 0.00 | 60 | 1020.4 |
| 20260502025629 | 42 | 126 | 0.0 | 0.0 | 0.00 | 0.00 | 0.00 | 60 | 1020.6 |
| 20260502025128 | 42 | 117 | 0.0 | 0.0 | 0.00 | 0.00 | 0.00 | 59 | 1020.6 |
| 20260502024625 | 43 | 130 | 0.0 | 0.0 | 0.00 | 0.00 | 0.00 | 59 | 1020.4 |
| 20260502024123 | 43 | 135 | 0.0 | 0.0 | 0.00 | 0.00 | 0.00 | 59 | 1020.6 |
| 20260502023621 | 43 | 111 | 0.0 | 0.0 | 0.00 | 0.00 | 0.00 | 60 | 1020.6 |
| 20260502023118 | 44 | 107 | 0.0 | 0.0 | 0.00 | 0.00 | 0.00 | 61 | 1020.5 |
| 20260502022615 | 44 | 108 | 0.0 | 0.0 | 0.00 | 0.00 | 0.00 | 59 | 1020.4 |
| 20260502022112 | 45 | 123 | 0.0 | 0.0 | 0.00 | 0.00 | 0.00 | 60 | 1020.0 |
| 20260502021609 | 46 | 138 | 0.0 | 2.0 | 0.00 | 0.00 | 0.00 | 58 | 1020.1 |
| 20260502021106 | 46 | 112 | 0.0 | 0.0 | 0.00 | 0.00 | 0.00 | 56 | 1020.2 |
| 20260502020604 | 47 | 131 | 0.0 | 0.0 | 0.00 | 0.00 | 0.00 | 55 | 1020.3 |
| 20260502020100 | 47 | 80 | 0.0 | 0.0 | 0.00 | 0.00 | 0.00 | 55 | 1020.3 |
| 20260502015558 | 48 | 116 | 0.0 | 0.0 | 0.00 | 0.00 | 0.00 | 53 | 1020.3 |
| 20260502015054 | 48 | 99 | 0.0 | 0.0 | 0.00 | 0.00 | 0.00 | 52 | 1020.1 |
| 20260502014551 | 49 | 95 | 0.0 | 0.0 | 0.00 | 0.00 | 0.00 | 50 | 1020.2 |
| 20260502014048 | 49 | 111 | 0.0 | 0.0 | 0.00 | 0.00 | 0.00 | 51 | 1020.1 |
| 20260502013543 | 50 | 112 | 0.0 | 0.0 | 0.00 | 0.00 | 0.00 | 47 | 1020.0 |
| 20260502013040 | 50 | 118 | 0.0 | 0.0 | 0.00 | 0.00 | 0.00 | 43 | 1020.2 |
| 20260502012538 | 50 | 106 | 0.0 | 0.0 | 0.00 | 0.00 | 0.00 | 43 | 1019.9 |
| 20260502012035 | 51 | 118 | 0.0 | 0.0 | 0.00 | 0.00 | 0.00 | 40 | 1019.8 |
| 20260502011532 | 51 | 122 | 1.0 | 2.0 | 0.00 | 0.00 | 0.00 | 40 | 1019.9 |
| 20260502011028 | 51 | 119 | 0.0 | 2.0 | 0.00 | 0.00 | 0.00 | 39 | 1019.9 |
| 20260502010526 | 51 | 137 | 1.0 | 2.0 | 0.00 | 0.00 | 0.00 | 39 | 1019.9 |
| 20260502010022 | 52 | 145 | 2.0 | 2.0 | 0.00 | 0.00 | 0.00 | 38 | 1020.0 |
| 20260502005520 | 53 | 0 | 2.0 | 3.0 | 0.00 | 0.00 | 0.00 | 37 | 1019.9 |
| 20260502005017 | 53 | 120 | 1.0 | 2.0 | 0.00 | 0.00 | 0.00 | 37 | 1019.8 |
| 20260502004513 | 53 | 275 | 2.0 | 5.0 | 0.00 | 0.00 | 0.00 | 36 | 1019.8 |
| 20260502004010 | 53 | 301 | 4.0 | 5.0 | 0.00 | 0.00 | 0.00 | 36 | 1019.7 |
| 20260502003508 | 52 | 342 | 2.0 | 3.0 | 0.00 | 0.00 | 0.00 | 36 | 1019.7 |
| 20260502003004 | 52 | 326 | 2.0 | 3.0 | 0.00 | 0.00 | 0.00 | 36 | 1019.8 |
| 20260502002501 | 52 | 301 | 3.0 | 5.0 | 0.00 | 0.00 | 0.00 | 37 | 1019.9 |
| 20260502001958 | 53 | 306 | 4.0 | 5.0 | 0.00 | 0.00 | 0.00 | 37 | 1020.0 |
| 20260502001455 | 53 | 8 | 3.0 | 5.0 | 0.00 | 0.00 | 0.00 | 36 | 1019.8 |
| 20260502000953 | 53 | 257 | 3.0 | 3.0 | 0.00 | 0.00 | 0.00 | 36 | 1020.0 |
| 20260502000454 | 53 | 310 | 3.0 | 5.0 | 0.00 | 0.00 | 0.00 | 37 | 1019.7 |
| 20260501235947 | 53 | 152 | 1.0 | 2.0 | 0.00 | 0.00 | 0.00 | 37 | 1019.8 |
| 20260501235443 | 53 | 242 | 3.0 | 5.0 | 0.00 | 0.00 | 0.00 | 37 | 1019.6 |
| 20260501234938 | 53 | 156 | 2.0 | 2.0 | 0.00 | 0.00 | 0.00 | 37 | 1019.9 |
| 20260501234435 | 53 | 272 | 4.0 | 6.0 | 0.00 | 0.00 | 0.00 | 37 | 1019.8 |
| 20260501233934 | 52 | 118 | 1.0 | 2.0 | 0.00 | 0.00 | 0.00 | 37 | 1019.9 |
| 20260501233431 | 53 | 82 | 2.0 | 3.0 | 0.00 | 0.00 | 0.00 | 36 | 1019.9 |
| 20260501232927 | 53 | 132 | 1.0 | 2.0 | 0.00 | 0.00 | 0.00 | 36 | 1019.9 |
| 20260501232424 | 52 | 107 | 0.0 | 0.0 | 0.00 | 0.00 | 0.00 | 36 | 1019.9 |
| 20260501231921 | 53 | 273 | 6.0 | 8.0 | 0.00 | 0.00 | 0.00 | 37 | 1020.1 |
| 20260501231420 | 52 | 297 | 2.0 | 5.0 | 0.00 | 0.00 | 0.00 | 37 | 1019.9 |
| 20260501230917 | 53 | 295 | 4.0 | 5.0 | 0.00 | 0.00 | 0.00 | 37 | 1020.1 |
| 20260501230416 | 53 | 33 | 3.0 | 3.0 | 0.00 | 0.00 | 0.00 | 37 | 1019.8 |
| 20260501225913 | 53 | 259 | 4.0 | 5.0 | 0.00 | 0.00 | 0.00 | 38 | 1020.1 |
| 20260501225411 | 52 | 210 | 3.0 | 5.0 | 0.00 | 0.00 | 0.00 | 38 | 1020.2 |
| 20260501224906 | 52 | 129 | 2.0 | 2.0 | 0.00 | 0.00 | 0.00 | 37 | 1020.0 |
| 20260501224404 | 52 | 284 | 2.0 | 3.0 | 0.00 | 0.00 | 0.00 | 38 | 1019.9 |
| 20260501223900 | 52 | 320 | 5.0 | 6.0 | 0.00 | 0.00 | 0.00 | 38 | 1020.1 |